Location: Unspecified
(40.2076°N, 8.4241°W)
Time: 00:33:40
(UTC+01:00)

ISS - Visible Passes

Search period start: 20 February 2020 00:00
Search period end: 01 March 2020 00:00
Orbit: 416 x 422 km, 51.6° (Epoch: 20 February)

Date Brightness Start Highest point End Pass type
(mag) Time Alt. Az. Time Alt. Az. Time Alt. Az.
21 Feb -2.3 07:26:33 10° SSW 07:29:42 38° SE 07:32:52 10° ENE visible
22 Feb -1.5 06:39:49 12° S 06:42:11 22° SE 06:44:53 10° E visible
23 Feb -0.8 05:54:51 13° SE 05:54:51 13° SE 05:56:21 10° E visible
23 Feb -3.8 07:27:51 11° WSW 07:31:06 68° NW 07:34:29 10° NE visible
24 Feb -3.6 06:42:38 46° SSW 06:43:27 69° SE 06:46:50 10° ENE visible
25 Feb -1.5 05:57:15 25° E 05:57:15 25° E 05:59:01 10° ENE visible
25 Feb -2.6 07:30:13 13° W 07:32:42 28° NNW 07:35:43 10° NE visible
26 Feb -3.3 06:44:41 41° NW 06:44:56 42° NNW 06:48:10 10° NE visible
27 Feb -1.6 05:59:03 24° NE 05:59:03 24° NE 06:00:33 10° NE visible
27 Feb -1.7 07:32:11 10° WNW 07:34:28 17° NNW 07:36:46 10° NNE visible
28 Feb -2.1 06:46:16 21° NNW 06:46:34 21° NNW 06:49:14 10° NNE visible
29 Feb -1.3 06:00:28 18° NNE 06:00:28 18° NNE 06:01:41 10° NE visible
29 Feb -1.3 07:34:46 10° NW 07:36:20 13° N 07:37:55 10° NNE visible
